Flag for Canada Weather past 2 weeks in Granby, Quebec, Canada

Now
64 °F

Mild.


Feels Like: 64 °F
Forecast: 59 / 69 °F
Wind: 5 mph from South

Location: Frelighsburg

Current Time: May 25, 2015 at 1:51:14 AM

Latest Report: May 25, 2015 at 1:00 AM


Visibility: N/A

Pressure: 30.09 "Hg

Humidity: 36%

Dew point: 37 °F

Location of GranbyLocation

Historic Weather in Granby — Graph

°F

Granby temperature yesterday

Maximum temperature yesterday: 76 °F (at 5:00 PM)
Minimum temperature yesterday: 48 °F (at 12:00 AM)
Average temperature yesterday: 62 °F

Past Weeks' High & Low Weather Summary

 TemperatureHumidityPressure
High80 °F (May 18, 4:00 PM)100% (May 10, 9:00 PM)30.39 "Hg (May 10, 9:00 PM)
Low32 °F (May 23, 4:00 AM)22% (May 15, 2:00 PM)29.60 "Hg (May 12, 3:00 PM)
Average57 °F62%30.02 "Hg
* Reported Midnight between May 9 and May 10 — Midnight between May 24 and May 25, Granby, Weather by CustomWeather, © 2015

Note: Actual official high and low records may vary slightly from our data, if they occured in-between our weather recording intervals... More about our weather records

Advertising

Granby weather history for previous 24 hours

 ConditionsComfort  
Time TempWeatherWind HumidityBarometerVisibility
12:00 AM
Mon, May 25
65 °FMild.6 mph33%30.10 "HgN/A
11:00 PM
Sun, May 24
65 °FMild.5 mph33%30.09 "HgN/A
10:00 PM67 °FMild.5 mph31%30.09 "HgN/A
9:00 PM68 °FMild.5 mph32%30.07 "HgN/A
8:00 PM69 °FMild.3 mph33%30.05 "HgN/A
7:00 PM73 °FMild.3 mph29%30.05 "HgN/A
6:00 PM75 °FMild.5 mph27%30.05 "HgN/A
5:00 PM76 °FMild.6 mph26%30.05 "HgN/A
4:00 PM75 °FMild.5 mph29%30.06 "HgN/A
3:00 PM74 °FMild.7 mph32%30.06 "HgN/A
2:00 PM72 °FMild.7 mph30%30.09 "HgN/A
1:00 PM69 °FMild.8 mph33%30.11 "HgN/A
12:00 PM67 °FMild.6 mph41%30.13 "HgN/A
11:00 AM63 °FMild.6 mph37%30.14 "HgN/A
10:00 AM63 °FMild.7 mph42%30.15 "HgN/A
9:00 AM58 °FRefreshingly cool.5 mph46%30.16 "HgN/A
8:00 AM56 °FRefreshingly cool.5 mph45%30.15 "HgN/A
7:00 AM53 °FCool.3 mph49%30.14 "HgN/A
6:00 AM52 °FCool.3 mph50%30.14 "HgN/A
5:00 AM54 °FCool.5 mph39%30.11 "HgN/A
4:00 AM53 °FCool.6 mph40%30.09 "HgN/A
3:00 AM52 °FCool.7 mph38%30.10 "HgN/A
2:00 AM51 °FCool.6 mph41%30.11 "HgN/A
1:00 AM49 °FCool.5 mph45%30.13 "HgN/A
Weather by CustomWeather, © 2015

See weather overviewHow to use our weather pages